Location: Newark
(48.2300°N, 0.3056°W)
Time: 06:25:23
(UTC+00:00)

N. Korean satellite - Visible Passes

Search period start: 18 October 2019 00:00
Search period end: 28 October 2019 00:00
Orbit: 455 x 508 km, 97.2° (Epoch: 16 October)

Date Brightness Start Highest point End Pass type
(mag) Time Alt. Az. Time Alt. Az. Time Alt. Az.
18 Oct 8.1 05:39:11 10° NNE 05:42:37 41° E 05:46:04 10° S visible
18 Oct 9.5 17:52:08 10° SSW 17:54:51 22° W 17:57:36 10° NW visible
19 Oct 9.5 05:14:20 10° NE 05:17:11 22° E 05:20:04 10° SE visible
20 Oct 10.3 04:50:17 10° ENE 04:51:40 12° E 04:53:05 10° ESE visible
21 Oct 7.0 05:56:32 10° NNE 06:00:08 69° ESE 06:03:47 10° S visible
21 Oct 10.1 18:10:34 10° SW 18:12:28 14° W 18:14:23 10° WNW visible
22 Oct 8.6 05:31:26 10° NNE 05:34:46 34° E 05:38:08 10° SSE visible
22 Oct 9.1 17:44:01 10° SSW 17:46:57 26° W 17:49:58 10° NW visible
23 Oct 9.8 05:06:42 10° NE 05:09:19 18° E 05:11:56 10° SE visible
25 Oct 7.5 05:48:41 10° NNE 05:52:17 56° E 05:55:56 10° S visible
25 Oct 9.9 18:02:10 10° SW 18:04:32 17° W 18:06:55 10° NW visible
26 Oct 9.0 05:23:40 10° NE 05:26:54 28° E 05:30:08 10° SSE visible
26 Oct 8.6 17:35:53 10° SSW 17:39:02 33° W 17:42:15 10° NNW visible
27 Oct 10.0 04:59:07 10° NE 05:01:24 16° E 05:03:41 10° SE visible
